RYR66LN EIDW-EGPH

Flight info

Callsign RYR66LN
Flight time 0h 42m
Altitude 23000
Route ROTEV8E ROTEV P600 TUNSO
Aircraft B738/M-SDE2E3FGHIRWXY/LB1

Departure

Time 2026-05-07 12:44
Airport Dublin Airport (EIDW)

Arrival

Time 2026-05-07 13:27
Airport Edinburgh Airport (EGPH)
Time Latitude Longitude Altitude Speed Heading
2026-05-07 12:25 53.43003 -6.24814 251 ft 0 kts
2026-05-07 12:36 53.43002 -6.24815 251 ft 1 kts
2026-05-07 12:36 53.42989 -6.24817 251 ft 2 kts
2026-05-07 12:36 53.42971 -6.24816 251 ft 3 kts 348°
2026-05-07 12:36 53.42952 -6.24803 251 ft 3 kts 325°
2026-05-07 12:37 53.42938 -6.24779 251 ft 3 kts 304°
2026-05-07 12:37 53.42936 -6.24774 251 ft 0 kts 302°
2026-05-07 12:38 53.42941 -6.24791 251 ft 3 kts 294°
2026-05-07 12:38 53.42940 -6.24831 251 ft 5 kts 248°
2026-05-07 12:38 53.42916 -6.24884 251 ft 7 kts 230°
2026-05-07 12:38 53.42878 -6.24952 251 ft 9 kts 227°
2026-05-07 12:39 53.42829 -6.25036 251 ft 11 kts 215°
2026-05-07 12:39 53.42766 -6.25120 251 ft 12 kts 226°
2026-05-07 12:39 53.42701 -6.25231 251 ft 15 kts 225°
2026-05-07 12:39 53.42625 -6.25360 251 ft 17 kts 225°
2026-05-07 12:40 53.42540 -6.25506 251 ft 18 kts 225°
2026-05-07 12:40 53.42446 -6.25666 251 ft 20 kts 225°
2026-05-07 12:40 53.42342 -6.25843 251 ft 22 kts 225°
2026-05-07 12:40 53.42262 -6.26057 251 ft 22 kts 267°
2026-05-07 12:41 53.42274 -6.26326 251 ft 24 kts 275°
2026-05-07 12:41 53.42290 -6.26615 251 ft 26 kts 275°
2026-05-07 12:41 53.42306 -6.26921 251 ft 27 kts 275°
2026-05-07 12:41 53.42324 -6.27251 251 ft 29 kts 275°
2026-05-07 12:42 53.42343 -6.27600 251 ft 31 kts 275°
2026-05-07 12:42 53.42363 -6.27967 251 ft 32 kts 275°
2026-05-07 12:42 53.42384 -6.28345 251 ft 34 kts 275°
2026-05-07 12:42 53.42404 -6.28725 251 ft 28 kts 275°
2026-05-07 12:43 53.42413 -6.28977 251 ft 19 kts 258°
2026-05-07 12:43 53.42332 -6.29078 251 ft 12 kts 173°
2026-05-07 12:43 53.42251 -6.29035 251 ft 11 kts 117°
2026-05-07 12:43 53.42237 -6.28846 251 ft 38 kts 95°
2026-05-07 12:44 53.42192 -6.28016 251 ft 104 kts 95°
2026-05-07 12:44 53.42110 -6.26497 315 ft 149 kts 95°
2026-05-07 12:44 53.42016 -6.24779 969 ft 150 kts 96°
2026-05-07 12:44 53.41895 -6.23013 1632 ft 155 kts 98°
2026-05-07 12:45 53.41777 -6.21173 2240 ft 165 kts 98°
2026-05-07 12:45 53.41654 -6.19174 2866 ft 178 kts 98°
2026-05-07 12:45 53.41525 -6.17028 3493 ft 194 kts 98°
2026-05-07 12:45 53.41384 -6.14651 4088 ft 215 kts 98°
2026-05-07 12:46 53.41248 -6.12140 4746 ft 217 kts 98°
2026-05-07 12:46 53.41283 -6.09631 5398 ft 220 kts 79°
2026-05-07 12:46 53.42013 -6.07417 6096 ft 219 kts 48°
2026-05-07 12:46 53.43302 -6.06092 6662 ft 219 kts 16°
2026-05-07 12:47 53.44816 -6.05703 7255 ft 222 kts
2026-05-07 12:47 53.46416 -6.05644 7844 ft 246 kts 358°
2026-05-07 12:47 53.48203 -6.05660 8690 ft 265 kts 358°
2026-05-07 12:47 53.50106 -6.05693 9562 ft 284 kts 357°
2026-05-07 12:48 53.52165 -6.05737 10437 ft 303 kts 357°
2026-05-07 12:48 53.54319 -6.05787 11297 ft 326 kts 357°
2026-05-07 12:48 53.56686 -6.05847 12172 ft 351 kts 357°
2026-05-07 12:48 53.59218 -6.05916 13042 ft 374 kts 357°
2026-05-07 12:49 53.61909 -6.05995 13910 ft 395 kts 357°
2026-05-07 12:49 53.64686 -6.06072 14760 ft 413 kts 358°
2026-05-07 12:49 53.67631 -6.06123 15624 ft 427 kts 358°
2026-05-07 12:49 53.70624 -6.06157 16475 ft 439 kts 358°
2026-05-07 12:50 53.73737 -6.06187 17336 ft 448 kts 358°
2026-05-07 12:50 53.76865 -6.06214 18186 ft 455 kts 358°
2026-05-07 12:50 53.80073 -6.06242 19045 ft 460 kts 358°
2026-05-07 12:50 53.83266 -6.06277 19891 ft 464 kts 359°
2026-05-07 12:51 53.86487 -6.06314 20738 ft 466 kts 359°
2026-05-07 12:51 53.89762 -6.06327 21596 ft 468 kts 359°
2026-05-07 12:51 53.93025 -6.06331 22449 ft 468 kts 359°
2026-05-07 12:51 53.96301 -6.06361 23000 ft 476 kts 359°
2026-05-07 12:52 53.99577 -6.05864 23012 ft 479 kts 10°
2026-05-07 12:52 54.02823 -6.04479 22989 ft 477 kts 17°
2026-05-07 12:52 54.05934 -6.02648 22970 ft 476 kts 21°
2026-05-07 12:52 54.08988 -6.00544 22961 ft 474 kts 24°
2026-05-07 12:53 54.12036 -5.98271 22958 ft 473 kts 25°
2026-05-07 12:53 54.15015 -5.95958 22957 ft 473 kts 26°
2026-05-07 12:53 54.18012 -5.93580 22957 ft 472 kts 26°
2026-05-07 12:53 54.20987 -5.91193 22956 ft 472 kts 26°
2026-05-07 12:54 54.23924 -5.88818 22956 ft 470 kts 26°
2026-05-07 12:54 54.26851 -5.86442 22955 ft 458 kts 26°
2026-05-07 12:54 54.29703 -5.84124 22960 ft 446 kts 26°
2026-05-07 12:54 54.32456 -5.81883 22962 ft 438 kts 26°
2026-05-07 12:55 54.35198 -5.79648 22963 ft 433 kts 26°
2026-05-07 12:55 54.37926 -5.77421 22963 ft 430 kts 26°
2026-05-07 12:55 54.40589 -5.75244 22963 ft 428 kts 26°
2026-05-07 12:55 54.43285 -5.73035 22963 ft 426 kts 26°
2026-05-07 12:56 54.45936 -5.70860 22963 ft 425 kts 26°
2026-05-07 12:56 54.48612 -5.68660 22963 ft 425 kts 26°
2026-05-07 12:56 54.50379 -5.67205 22963 ft 425 kts 26°
2026-05-07 12:56 54.53076 -5.64980 22963 ft 424 kts 26°
2026-05-07 12:57 54.55674 -5.62686 22964 ft 423 kts 31°
2026-05-07 12:57 54.58137 -5.59916 22972 ft 423 kts 36°
2026-05-07 12:57 54.60505 -5.56877 22971 ft 422 kts 39°
2026-05-07 12:57 54.62805 -5.53692 22967 ft 422 kts 41°
2026-05-07 12:58 54.65044 -5.50464 22963 ft 422 kts 41°
2026-05-07 12:58 54.67278 -5.47183 22963 ft 422 kts 42°
2026-05-07 12:58 54.69502 -5.43924 22962 ft 422 kts 41°
2026-05-07 12:58 54.71759 -5.40629 22962 ft 422 kts 41°
2026-05-07 12:59 54.74017 -5.37334 22962 ft 422 kts 41°
2026-05-07 12:59 54.76245 -5.34081 22962 ft 422 kts 41°
2026-05-07 12:59 54.78499 -5.30786 22961 ft 422 kts 41°
2026-05-07 12:59 54.80722 -5.27531 22961 ft 422 kts 41°
2026-05-07 13:00 54.82957 -5.24211 22960 ft 422 kts 42°
2026-05-07 13:00 54.85233 -5.20952 22960 ft 423 kts 38°
2026-05-07 13:00 54.87642 -5.18110 22962 ft 424 kts 33°
2026-05-07 13:00 54.90181 -5.15471 22962 ft 424 kts 30°
2026-05-07 13:01 54.92766 -5.12979 22960 ft 424 kts 29°
2026-05-07 13:01 54.95352 -5.10579 22952 ft 424 kts 28°
2026-05-07 13:01 54.97981 -5.08183 22948 ft 424 kts 28°
2026-05-07 13:01 55.00581 -5.05831 22948 ft 424 kts 27°
2026-05-07 13:02 55.03222 -5.03448 22948 ft 424 kts 27°
2026-05-07 13:02 55.05822 -5.01102 22949 ft 424 kts 28°
2026-05-07 13:02 55.08281 -4.98264 22950 ft 422 kts 42°
2026-05-07 13:02 55.10211 -4.94478 22963 ft 421 kts 55°
2026-05-07 13:03 55.11808 -4.90169 22967 ft 419 kts 62°
2026-05-07 13:03 55.13199 -4.85731 22963 ft 419 kts 65°
2026-05-07 13:03 55.14509 -4.81153 22958 ft 418 kts 66°
2026-05-07 13:03 55.15737 -4.76595 22956 ft 418 kts 67°
2026-05-07 13:04 55.16942 -4.71954 22955 ft 418 kts 68°
2026-05-07 13:04 55.18114 -4.67347 22955 ft 417 kts 68°
2026-05-07 13:04 55.19298 -4.62642 22956 ft 417 kts 69°
2026-05-07 13:04 55.20451 -4.58027 22959 ft 417 kts 69°
2026-05-07 13:05 55.21598 -4.53425 22770 ft 402 kts 69°
2026-05-07 13:05 55.22686 -4.49067 22215 ft 387 kts 69°
2026-05-07 13:05 55.23752 -4.44795 21615 ft 375 kts 69°
2026-05-07 13:05 55.24786 -4.40642 21009 ft 364 kts 69°
2026-05-07 13:06 55.25778 -4.36649 20411 ft 356 kts 69°
2026-05-07 13:06 55.26756 -4.32698 19807 ft 349 kts 69°
2026-05-07 13:06 55.27705 -4.28855 19209 ft 343 kts 69°
2026-05-07 13:06 55.28644 -4.25033 18630 ft 336 kts 69°
2026-05-07 13:07 55.29550 -4.21335 18123 ft 330 kts 69°
2026-05-07 13:07 55.30448 -4.17653 17618 ft 324 kts 69°
2026-05-07 13:07 55.31331 -4.14028 17114 ft 320 kts 69°
2026-05-07 13:07 55.32197 -4.10471 16616 ft 317 kts 69°
2026-05-07 13:08 55.33057 -4.06944 16117 ft 314 kts 69°
2026-05-07 13:08 55.33920 -4.03406 15614 ft 312 kts 69°
2026-05-07 13:08 55.34776 -3.99896 15111 ft 310 kts 69°
2026-05-07 13:08 55.35614 -3.96448 14614 ft 307 kts 69°
2026-05-07 13:09 55.36444 -3.93024 14116 ft 305 kts 69°
2026-05-07 13:09 55.37275 -3.89589 13612 ft 302 kts 69°
2026-05-07 13:09 55.38087 -3.86224 13114 ft 300 kts 69°
2026-05-07 13:09 55.38901 -3.82832 12609 ft 297 kts 69°
2026-05-07 13:10 55.39678 -3.79522 12117 ft 295 kts 70°
2026-05-07 13:10 55.40463 -3.76150 11612 ft 294 kts 70°
2026-05-07 13:10 55.41226 -3.72859 11113 ft 291 kts 70°
2026-05-07 13:10 55.41990 -3.69550 10609 ft 289 kts 70°
2026-05-07 13:11 55.42736 -3.66311 10109 ft 287 kts 70°
2026-05-07 13:11 55.43481 -3.63075 9615 ft 285 kts 70°
2026-05-07 13:11 55.44221 -3.59859 9115 ft 284 kts 70°
2026-05-07 13:11 55.44963 -3.56624 8611 ft 283 kts 70°
2026-05-07 13:12 55.45692 -3.53470 8432 ft 270 kts 70°
2026-05-07 13:12 55.46392 -3.50451 8351 ft 268 kts 69°
2026-05-07 13:12 55.47368 -3.47605 8277 ft 272 kts 51°
2026-05-07 13:12 55.48704 -3.45258 8184 ft 276 kts 41°
2026-05-07 13:13 55.50189 -3.43062 8059 ft 277 kts 38°
2026-05-07 13:13 55.51688 -3.40964 7937 ft 277 kts 38°
2026-05-07 13:13 55.53213 -3.38869 7813 ft 276 kts 37°
2026-05-07 13:13 55.54720 -3.36812 7692 ft 276 kts 37°
2026-05-07 13:14 55.56252 -3.34723 7563 ft 276 kts 37°
2026-05-07 13:14 55.57759 -3.32668 7439 ft 275 kts 37°
2026-05-07 13:14 55.59280 -3.30593 7312 ft 275 kts 37°
2026-05-07 13:14 55.60779 -3.28548 7191 ft 274 kts 37°
2026-05-07 13:15 55.62288 -3.26488 7064 ft 273 kts 37°
2026-05-07 13:15 55.63794 -3.24434 6931 ft 273 kts 37°
2026-05-07 13:15 55.65313 -3.22397 6753 ft 273 kts 36°
2026-05-07 13:15 55.66818 -3.20387 6573 ft 271 kts 37°
2026-05-07 13:16 55.68329 -3.18364 6399 ft 271 kts 37°
2026-05-07 13:16 55.69844 -3.16433 6229 ft 270 kts 32°
2026-05-07 13:16 55.71468 -3.14740 6056 ft 269 kts 28°
2026-05-07 13:16 55.73102 -3.13177 5884 ft 268 kts 27°
2026-05-07 13:17 55.74762 -3.11633 5712 ft 267 kts 26°
2026-05-07 13:17 55.76397 -3.10127 5537 ft 267 kts 26°
2026-05-07 13:17 55.78060 -3.08605 5357 ft 266 kts 26°
2026-05-07 13:17 55.79688 -3.07123 5187 ft 265 kts 26°
2026-05-07 13:18 55.81332 -3.05628 5019 ft 264 kts 26°
2026-05-07 13:18 55.82965 -3.04150 4898 ft 262 kts 26°
2026-05-07 13:18 55.84571 -3.02703 4771 ft 262 kts 26°
2026-05-07 13:18 55.86205 -3.01234 4645 ft 262 kts 26°
2026-05-07 13:19 55.87847 -2.99797 4519 ft 261 kts 22°
2026-05-07 13:19 55.89588 -2.99074 4407 ft 259 kts
2026-05-07 13:19 55.91393 -2.98904 4285 ft 258 kts 359°
2026-05-07 13:19 55.93190 -2.98909 4166 ft 258 kts 357°
2026-05-07 13:20 55.94972 -2.98964 4038 ft 257 kts 356°
2026-05-07 13:20 55.96748 -2.99038 3930 ft 246 kts 356°
2026-05-07 13:20 55.98373 -2.99108 3817 ft 227 kts 356°
2026-05-07 13:20 55.99915 -2.99171 3674 ft 214 kts 356°
2026-05-07 13:21 56.01371 -2.99228 3537 ft 208 kts 356°
2026-05-07 13:21 56.02811 -2.99376 3394 ft 205 kts 347°
2026-05-07 13:21 56.04019 -3.00525 3250 ft 196 kts 311°
2026-05-07 13:21 56.04637 -3.02576 3141 ft 187 kts 278°
2026-05-07 13:22 56.04740 -3.04878 3053 ft 184 kts 263°
2026-05-07 13:22 56.04559 -3.07091 2932 ft 180 kts 252°
2026-05-07 13:22 56.04173 -3.09187 2808 ft 176 kts 244°
2026-05-07 13:22 56.03665 -3.11161 2682 ft 173 kts 239°
2026-05-07 13:23 56.03095 -3.13052 2549 ft 171 kts 237°
2026-05-07 13:23 56.02508 -3.14865 2378 ft 161 kts 235°
2026-05-07 13:23 56.01945 -3.16550 2176 ft 155 kts 235°
2026-05-07 13:23 56.01396 -3.18171 1973 ft 152 kts 235°
2026-05-07 13:24 56.00854 -3.19778 1802 ft 148 kts 235°
2026-05-07 13:24 56.00338 -3.21324 1691 ft 142 kts 235°
2026-05-07 13:24 55.99839 -3.22819 1582 ft 136 kts 235°
2026-05-07 13:24 55.99362 -3.24245 1438 ft 132 kts 236°
2026-05-07 13:25 55.98895 -3.25636 1309 ft 131 kts 236°
2026-05-07 13:25 55.98422 -3.27048 1184 ft 132 kts 236°
2026-05-07 13:25 55.97956 -3.28441 1046 ft 132 kts 236°
2026-05-07 13:25 55.97481 -3.29856 897 ft 132 kts 237°
2026-05-07 13:26 55.97008 -3.31267 747 ft 132 kts 237°
2026-05-07 13:26 55.96538 -3.32667 580 ft 133 kts 238°
2026-05-07 13:26 55.96064 -3.34080 405 ft 132 kts 239°
2026-05-07 13:26 55.95596 -3.35476 225 ft 129 kts 239°
2026-05-07 13:27 55.95148 -3.36811 144 ft 110 kts 239°
2026-05-07 13:27 55.94879 -3.37613 144 ft 48 kts 239°
2026-05-07 13:27 55.94757 -3.37978 144 ft 24 kts 239°
2026-05-07 13:27 55.94677 -3.38035 144 ft 8 kts 151°
2026-05-07 13:28 55.94642 -3.37999 144 ft 5 kts 149°
2026-05-07 13:28 55.94605 -3.37958 144 ft 6 kts 143°
2026-05-07 13:28 55.94599 -3.37880 144 ft 8 kts 71°
2026-05-07 13:28 55.94631 -3.37777 144 ft 11 kts 59°
2026-05-07 13:29 55.94676 -3.37644 144 ft 14 kts 59°
2026-05-07 13:29 55.94731 -3.37481 144 ft 17 kts 59°
2026-05-07 13:29 55.94798 -3.37283 144 ft 20 kts 59°
2026-05-07 13:29 55.94875 -3.37054 144 ft 23 kts 59°
2026-05-07 13:30 55.94919 -3.36827 144 ft 13 kts 141°
2026-05-07 13:30 55.94836 -3.36745 144 ft 14 kts 169°
2026-05-07 13:30 55.94730 -3.36737 144 ft 16 kts 179°
2026-05-07 13:30 55.94643 -3.36736 144 ft 6 kts 179°
2026-05-07 13:31 55.94617 -3.36711 144 ft 4 kts 107°
2026-05-07 13:31 55.94616 -3.36643 144 ft 6 kts 90°
2026-05-07 13:31 55.94616 -3.36632 144 ft 0 kts 90°